Погода в Семаранге

Индонезия     7°01′21″S   110°25′52″E
темп.,
°C
ветер,
м/с
пор.,
м/с
влажн.,
%
обл.,
%
осадки,
мм/ч
давл.,
гПа
погр.,
м
2 марта, вт
вт201:00+25зюз228493 0.1 101073
04:00+25зюз228375 0.0 100946
07:00+26зюз228183 0.1 1010121
10:00+30сз456932 0.2 1011796
13:00+28зсз587748 3.3 1008455
16:00+28зсз697695 0.4 1007640
19:00+26з488294 2.1 1010272
22:00+25з358598 4.3 1012137
3 марта, ср
ср301:00+24з359299 10.3 1010186
04:00+24зсз1289100 1.8 100960
07:00+24ююв2285100 1.9 101086
10:00+28с126899 0.0 1011335
13:00+29сз466681 0.0 1009675
16:00+28зсз587541 0.0 1008669
19:00+26з358344 0.1 1010154
22:00+25зсз238497 0.6 1012105
4 марта, чт
чт401:00+24з238998 4.2 101190
04:00+24зюз238692 2.1 101159
07:00+25з238364 2.1 1012169
10:00+29зсз346863 0.0 1012664
13:00+30ссз446882 0.0 1010682
16:00+28сз467687 3.2 1008449
19:00+26з238393 4.1 1011133
22:00+26юз1184100 0.0 101251
5 марта, пт
пт501:00+25юз0184100 0.0 101142
04:00+25ююв1185100 0.0 101037
07:00+25юв2287100 0.0 1011103
10:00+29в2170100 0.0 1012711
13:00+31с436376 0.2 1009935
16:00+29сз4471100 0.8 1007517
19:00+27сз3481100 1.4 1009122
22:00+25зсз228795 1.3 101164
6 марта, сб
сб601:00+25з228795 2.1 101080
04:00+24зюз128669 0.8 100943
07:00+25ю118283 1.4 101193
10:00+29сз3471100 3.8 1010583
13:00+30сз556791 6.2 1008898
16:00+29сз56714 1.0 1008841
19:00+26зсз238448 3.0 101097
22:00+25юз1282100 0.0 101144